This demonstration page uses our WeatherBlox Daily Observations layout. Learn more.

Left ArrowRight Arrow

38.20091, -84.87328

Hourly Observations for September 7, 2016

Temp ( °F °C ) Dew Point ( °F °C ) Humidity (%) Winds ( mph kmh ) Pressure ( in mb ) Visibility ( mi km ) Precip ( " mm )
12:53 am 00:53 Clear 72 22.2 67 19.4 84 84 Calm 30.13 1020 10 16 0.00 0.00
1:53 am 01:53 Clear 70 21.1 66 18.9 87 87 Calm 30.13 1020 10 16 0.00 0.00
2:53 am 02:53 Clear 71 21.7 66 18.9 84 84 Calm 30.12 1020 10 16 0.00 0.00
3:53 am 03:53 Clear 70 21.1 66 18.9 87 87 Calm 30.13 1020 10 16 0.00 0.00
4:53 am 04:53 Clear 70 21.1 65 18.3 84 84 Calm 30.13 1020 10 16 0.00 0.00
5:53 am 05:53 Clear 70 21.1 66 18.9 87 87 Calm 30.13 1020 10 16 0.00 0.00
6:53 am 06:53 Clear 68 20 64 17.8 87 87 Calm 30.15 1021 8 13 0.00 0.00
7:53 am 07:53 Sunny 69 20.6 65 18.3 87 87 WSW 5 7 30.16 1021 9 14 0.00 0.00
8:53 am 08:53 Sunny 74 23.3 68 20 82 82 SW 7 11 30.17 1022 10 16 0.00 0.00
9:53 am 09:53 Sunny 80 26.7 68 20 67 67 WSW 8 13 30.17 1022 10 16 0.00 0.00
10:53 am 10:53 Sunny 85 29.4 67 19.4 55 55 WSW 6 9 30.17 1022 10 16 0.00 0.00
11:53 am 11:53 Sunny 87 30.6 67 19.4 51 51 VRB 6 9 30.16 1021 10 16 0.00 0.00
12:53 pm 12:53 Sunny 89 31.7 66 18.9 47 47 WSW 9 15 30.14 1021 10 16 0.00 0.00
1:53 pm 13:53 Mostly Sunny 90 32.2 66 18.9 45 45 SW 7 11 30.12 1020 10 16 0.00 0.00
2:53 pm 14:53 Partly Cloudy 91 32.8 66 18.9 44 44 SW 13 20 30.11 1020 10 16 0.00 0.00
3:53 pm 15:53 Mostly Cloudy 92 33.3 66 18.9 43 43 SW 9 15 30.09 1019 10 16 0.00 0.00
4:53 pm 16:53 Mostly Sunny 90 32.2 64 17.8 42 42 SW 9 15 30.08 1019 10 16 0.00 0.00
5:53 pm 17:53 Mostly Sunny 90 32.2 65 18.3 44 44 SSW 12 19 30.07 1018 10 16 0.00 0.00
6:53 pm 18:53 Sunny 88 31.1 65 18.3 46 46 SSW 12 19 30.06 1018 10 16 0.00 0.00
7:53 pm 19:53 Sunny 83 28.3 66 18.9 57 57 SSW 6 9 30.06 1018 10 16 0.00 0.00
8:53 pm 20:53 Clear 79 26.1 67 19.4 67 67 SW 5 7 30.07 1018 10 16 0.00 0.00
9:53 pm 21:53 Clear 77 25 67 19.4 71 71 SSW 3 6 30.06 1018 10 16 0.00 0.00
10:53 pm 22:53 Clear 77 25 67 19.4 71 71 WSW 3 6 30.05 1018 10 16 0.00 0.00
11:53 pm 23:53 Clear 75 23.9 67 19.4 76 76 SW 5 7 30.04 1017 10 16 0.00 0.00

Powered by AerisWeather